Weather History for Augusta, ME

Change the Weather History Date:

Saturday, December 15, 2012

  Actual Average Record
Temperature  
Mean Temperature 26 °F -  
Max Temperature 36 °F 34 °F 52 °F (2008)
Min Temperature 14 °F 20 °F 5 °F (1997)
Degree Days  
Heating Degree Days 40    
Moisture  
Dew Point 8 °F    
Average Humidity 55    
Maximum Humidity 66    
Minimum Humidity 40    
Precipitation  
Precipitation 0.00 in - - ()
Sea Level Pressure  
Sea Level Pressure 30.32 in    
Wind  
Wind Speed 10 mph (North)    
Max Wind Speed 16 mph    
Max Gust Speed 18 mph    
Visibility 10 miles    
Events      
Averages and records for this station are not official NWS values.
T = Trace of Precipitation, MM = Missing Value Source: NWS Daily Summary

Daily Weather History Graph

Daily Weather History Graph

Search for Another Location

Airport:

Trip Planner

Search our weather history database for the weather conditions in past years. The results will help you decide how hot, cold, wet, or windy it might be!

Date:

Astronomy

Dec. 15, 2012 Rise Set
Actual Time 7:08 AM EST 4:00 PM EST
Civil Twilight 6:35 AM EST 4:34 PM EST
Nautical Twilight 5:58 AM EST 5:10 PM EST
Astronomical Twilight 5:23 AM EST 5:46 PM EST
Moon 8:54 AM EST (12/15) 7:05 PM EST (12/15)
Length of Visible Light 9h 58m
Length of Day
8h 52m
Waxing Crescent, 8% of the Moon is Illuminated
Dec 15
Waxing Crescent
Dec 20
First Quarter
Dec 28
Full
Jan 4
Last Quarter
Jan 11
New

Hourly Weather History & Observations

Time (EST) Temp. Windchill Dew Point Humidity Pressure Visibility Wind Dir Wind Speed Gust Speed Precip Events Conditions
12:53 AM 36.0 °F 27.1 °F 24.1 °F 62% 30.13 in 10.0 mi NW 13.8 mph 18.4 mph N/A   Overcast
1:53 AM 33.1 °F 26.9 °F 19.0 °F 56% 30.17 in 10.0 mi WNW 6.9 mph - N/A   Clear
2:53 AM 30.0 °F 23.2 °F 19.0 °F 64% 30.19 in 10.0 mi NW 6.9 mph - N/A   Clear
3:53 AM 28.0 °F 21.7 °F 17.1 °F 63% 30.20 in 10.0 mi North 5.8 mph - N/A   Clear
4:53 AM 26.1 °F 18.4 °F 16.0 °F 66% 30.23 in 10.0 mi North 6.9 mph - N/A   Clear
5:53 AM 25.0 °F 14.8 °F 15.1 °F 66% 30.27 in 10.0 mi North 10.4 mph - N/A   Clear
6:53 AM 23.0 °F 14.7 °F 12.2 °F 63% 30.28 in 10.0 mi NNE 6.9 mph - N/A   Clear
7:53 AM 21.9 °F 10.4 °F 12.0 °F 66% 30.32 in 10.0 mi North 11.5 mph - N/A   Clear
8:53 AM 21.9 °F 9.8 °F 10.0 °F 60% 30.36 in 10.0 mi North 12.7 mph 18.4 mph N/A   Clear
9:53 AM 24.1 °F 13.7 °F 10.0 °F 55% 30.37 in 10.0 mi North 10.4 mph - N/A   Clear
10:53 AM 24.1 °F 12.5 °F 8.1 °F 51% 30.36 in 10.0 mi NNW 12.7 mph - N/A   Clear
11:53 AM 24.1 °F 11.0 °F 5.0 °F 44% 30.35 in 10.0 mi North 16.1 mph - N/A   Clear
12:53 PM 24.1 °F 12.5 °F 3.9 °F 42% 30.35 in 10.0 mi North 12.7 mph - N/A   Clear
1:53 PM 25.0 °F 14.2 °F 3.9 °F 41% 30.35 in 10.0 mi North 11.5 mph - N/A   Clear
2:53 PM 24.1 °F 13.1 °F 3.0 °F 40% 30.34 in 10.0 mi North 11.5 mph - N/A   Clear
3:53 PM 21.9 °F 13.4 °F 1.9 °F 42% 30.34 in 10.0 mi NNE 6.9 mph - N/A   Clear
4:53 PM 21.0 °F 12.4 °F 1.9 °F 44% 30.35 in 10.0 mi NE 6.9 mph - N/A   Clear
5:53 PM 19.0 °F 10.0 °F 1.9 °F 47% 30.37 in 10.0 mi North 6.9 mph - N/A   Clear
6:53 PM 18.0 °F 11.1 °F 1.9 °F 50% 30.40 in 10.0 mi NNE 4.6 mph - N/A   Clear
7:53 PM 17.1 °F 8.7 °F 3.0 °F 54% 30.40 in 10.0 mi NNE 5.8 mph - N/A   Clear
8:53 PM 16.0 °F 6.3 °F 3.0 °F 57% 30.40 in 10.0 mi North 6.9 mph - N/A   Clear
9:53 PM 16.0 °F 6.3 °F 3.0 °F 57% 30.40 in 10.0 mi NNE 6.9 mph - N/A   Clear
10:53 PM 15.1 °F 4.2 °F 3.0 °F 59% 30.40 in 10.0 mi NNE 8.1 mph - N/A   Clear
11:53 PM 14.0 °F 3.9 °F 3.9 °F 64% 30.40 in 10.0 mi North 6.9 mph - N/A   Clear